{"data":{"norad_id":60600,"intl_designator":"2024-150T","name":"STARLINK-31923","alt_names":[],"object_type":"PAYLOAD","status":"ACTIVE","operator":null,"country":"US","launch_date":"2024-08-20","launch_site_code":"AFETR","launch_vehicle":null,"mission":null,"orbit_class":"UNKNOWN","rcs_meters":null,"size_class":null,"mass_kg":null,"dimensions":null,"purposes":["comms"],"wikipedia_slug":null,"has_3d_model":false,"image_url":null,"decayed_at":null,"tle_current":{"epoch":"2026-05-24T17:53:05.210016Z","epoch_age_seconds":90265,"freshness":"FRESH","line1":"1 60600U 24150T   26144.74519919  .00000876  00000+0  41693-4 0  9993","line2":"2 60600  53.1615 313.9085 0001160  82.2882 277.8251 15.30193855 99686","mean_motion":15.30193855,"eccentricity":0.000116,"inclination_deg":53.1615,"raan_deg":313.9085,"arg_perigee_deg":82.2882,"mean_anomaly_deg":277.8251,"bstar":4.1693e-5,"rev_number":9968,"period_min":94.105723617613,"perigee_km":474.43842637467,"apogee_km":476.02840831149,"semimajor_km":6853.3704173431,"source":"CELESTRAK","updated_at":"2026-05-25T13:38:19.282055Z"}}}